Weather History for Casablanca, Morocco

Change the Weather History Date:

Sunday, November 4, 2012

  Actual Average (GMMN) Record (GMMN)
Temperature  
Mean Temperature 78 °F -  
Max Temperature 84 °F 67 °F 82 °F (1996)
Min Temperature 73 °F 48 °F 46 °F (2010)
Cooling Degree Days 14    
Growing Degree Days 28 (Base 50)    
Moisture  
Dew Point 66 °F    
Average Humidity 68    
Maximum Humidity 94    
Minimum Humidity 48    
Precipitation  
Precipitation 0.00 in 0.10 in - ()
Sea Level Pressure  
Sea Level Pressure 29.91 in    
Wind  
Wind Speed 6 mph ()    
Max Wind Speed 12 mph    
Max Gust Speed -    
Visibility 7.9 miles    
Events Rain    
Averages and records for this station are not official NWS values.
T = Trace of Precipitation, MM = Missing Value Source: Averaged Metar Reports

Daily Weather History Graph

Daily Weather History Graph

Search for Another Location

Airport:

Trip Planner

Search our weather history database for the weather conditions in past years. The results will help you decide how hot, cold, wet, or windy it might be!

Date:

Astronomy

Nov. 04, 2012 Rise Set
Actual Time 6:52 AM WET 5:35 PM WET
Civil Twilight 6:26 AM WET 6:01 PM WET
Nautical Twilight 5:57 AM WET 6:30 PM WET
Astronomical Twilight 5:27 AM WET 7:00 PM WET
Moon 10:03 PM WET (11/4) 11:23 AM WET (11/4)
Length of Visible Light 11h 34m
Length of Day
10h 43m
Waning Gibbous, 74% of the Moon is Illuminated
Nov 4
Waning Gibbous
Nov 7
Last Quarter
Nov 13
New
Nov 20
First Quarter
Nov 28
Full

Hourly Weather History & Observations

Time (WET) Temp. Heat Index Dew Point Humidity Pressure Visibility Wind Dir Wind Speed Gust Speed Precip Events Conditions
12:00 AM 77 °F - 65 °F 57% 29.93 in 12 mi WSW 6.9 mph - -   Partly Cloudy
12:00 AM 77.0 °F - 64.4 °F 65% 29.89 in - WSW 6.9 mph - N/A   Clear
1:00 AM 75.2 °F - 64.4 °F 69% 29.89 in - SSW 4.6 mph - N/A   Clear
2:00 AM 75.2 °F - 64.4 °F 69% 29.89 in - SSW 6.9 mph - N/A   Clear
3:00 AM 75 °F - 64 °F 62% 29.92 in 12 mi SSW 4.6 mph - -   Partly Cloudy
3:00 AM 75.2 °F - 64.4 °F 69% 29.89 in - SSW 4.6 mph - N/A   Clear
4:00 AM 75.2 °F - 64.4 °F 69% 29.89 in - SSW 6.9 mph - N/A   Clear
5:00 AM 75.2 °F - 64.4 °F 69% 29.89 in - SSW 4.6 mph - N/A   Clear
6:00 AM 74 °F - 64 °F 64% 29.92 in 12 mi SW 4.6 mph - -   Partly Cloudy
6:00 AM 73.4 °F - 64.4 °F 73% 29.89 in 6.2 mi SW 4.6 mph - N/A   Scattered Clouds
7:00 AM 73.4 °F - 64.4 °F 73% 29.89 in 6.2 mi SSW 6.9 mph - N/A   Scattered Clouds
8:00 AM 75.2 °F - 62.6 °F 65% 29.89 in 6.2 mi SSW 9.2 mph - N/A   Scattered Clouds
9:00 AM 76 °F - 64 °F 58% 29.92 in 12 mi SSW 6.9 mph - -   Mostly Cloudy
9:00 AM 77.0 °F - 64.4 °F 65% 29.89 in 6.2 mi SSW 6.9 mph - N/A   Scattered Clouds
10:00 AM 78.8 °F - 62.6 °F 57% 29.89 in 6.2 mi SSW 9.2 mph - N/A   Scattered Clouds
11:00 AM 82.4 °F 83.4 °F 62.6 °F 51% 29.89 in 6.2 mi SSW 6.9 mph - N/A   Scattered Clouds
12:00 PM 83 °F - 66 °F 48% 29.94 in 12 mi WSW 9.2 mph - -   Partly Cloudy
12:00 PM 82.4 °F 84.6 °F 66.2 °F 58% 29.89 in 6.2 mi WSW 9.2 mph - N/A   Scattered Clouds
1:00 PM 84.2 °F 86.6 °F 66.2 °F 55% 29.89 in 6.2 mi WSW 9.2 mph - N/A   Scattered Clouds
2:00 PM 84.2 °F 86.6 °F 66.2 °F 55% 29.89 in 6.2 mi West 11.5 mph - N/A   Mostly Cloudy
3:00 PM 83 °F - 67 °F 49% 29.93 in 12 mi West 9.2 mph - -   Mostly Cloudy
3:00 PM 82.4 °F 84.6 °F 66.2 °F 58% 29.92 in 6.2 mi West 9.2 mph - N/A   Scattered Clouds
4:00 PM 82.4 °F 85.4 °F 68.0 °F 62% 29.89 in 6.2 mi West 9.2 mph - N/A   Overcast
5:00 PM 78.8 °F - 69.8 °F 74% 29.89 in 6.2 mi West 6.9 mph - N/A   Overcast
6:00 PM 77 °F - 70 °F 74% 29.94 in 12 mi SW 4.6 mph - -   Partly Cloudy
6:00 PM 77.0 °F - 69.8 °F 78% 29.92 in 6.2 mi SW 4.6 mph - N/A   Overcast
7:00 PM 75.2 °F - 69.8 °F 83% 29.95 in 6.2 mi WSW 6.9 mph - N/A Rain Light Rain
8:00 PM 73.4 °F - 69.8 °F 88% 29.95 in 6.2 mi SSW 4.6 mph - N/A   Mostly Cloudy
9:00 PM 73 °F - 71 °F 90% 29.99 in 9 mi South 4.6 mph - -   Overcast
9:00 PM 73.4 °F - 71.6 °F 94% 29.95 in 6.2 mi South 4.6 mph - N/A   Mostly Cloudy
10:00 PM 73.4 °F - 69.8 °F 88% 29.95 in 6.2 mi SSW 4.6 mph - N/A   Mostly Cloudy
11:00 PM 73.4 °F - 69.8 °F 88% 29.98 in 6.2 mi SW 4.6 mph - N/A   Mostly Cloudy